Location: Austin
(30.3000°N, 97.7500°W)
Time: 05:01:39
(UTC-06:00)

MOS 1 Rocket - Pass Details

Date: 05 February 2026
Orbit: 608 x 815 km, 97.4° (Epoch: 15 February)

Event Time Altitude Azimuth Distance (km) Brightness Sun altitude
Rises 06:44:49 0° 10° (N) 2,872 6.4 -7.9°
Reaches altitude 10° 06:46:58 10° 10° (N) 1,973 5.6 -7.5°
Maximum altitude 06:51:15 84° 282° (WNW) 633 3.1 -6.6°
Drops below altitude 10° 06:55:39 10° 195° (SSW) 2,034 5.7 -5.7°
Sets 06:57:54 0° 194° (SSW) 2,968 6.6 -5.2°
